Meteo Giornale » Osservazioni meteo Australia » Bullsbrook Pearce Amo
ore: 18:30 - Osservazioni Meteo Bullsbrook Pearce Amo
Lat. 31° 40' S Lon. 116° 1' E Alt. 45 metri s.l.m.
13 °C
Sereno
Temp. 24 Ore
11 °C
18 °C
Sud-Ovest
13 Km/h
Dew point 6 °C
Umidità 62 %
Visibilità 10 Km
Il sole sorge alle ore 06:32
Il sole tramonta alle ore 17:59
| Data e Ora | Cielo e Fenomeni | T °C | DP °C | Um. % | Pres. hPa | Vis. km | Vento km/h | |
|---|---|---|---|---|---|---|---|---|
| Oggi h: 18:30 | Sereno | 13 | 6 | 62 | 1023 | 10 | SO 13 | |
| Oggi h: 18:00 | Sereno | 15 | 6 | 54 | 1023 | 10 | S/SO 16.7 | |
| Oggi h: 17:30 | Sereno | 16 | 6 | 51 | 1023 | 10 | S 16.7 | |
| Oggi h: 17:00 | Sereno | 16 | 7 | 55 | 1023 | 10 | S 13 | |
| Oggi h: 16:30 | Sereno | 16 | 6 | 51 | 1023 | 10 | S 16.7 | |
| Oggi h: 16:00 | Sereno | 17 | 7 | 51 | 1023 | 10 | S 14.8 | |
| Oggi h: 15:30 | Sereno | 17 | 6 | 48 | 1022 | 10 | S 14.8 | |
| Oggi h: 15:00 | Sereno | 18 | 5 | 42 | 1023 | 10 | S/SO 13 | |
| Oggi h: 14:30 | Sereno | 18 | 6 | 45 | 1023 | 10 | S/SO 9.3 | |
| Oggi h: 14:00 | Sereno | 18 | 6 | 45 | 1023 | 10 | S/SO 9.3 | |
| Oggi h: 13:30 | Sereno | 18 | 5 | 42 | 1023 | 10 | O/SO 7.4 | |
| Oggi h: 13:00 | Sereno | 18 | 5 | 42 | 1023 | 10 | N 3.7 | |
| Oggi h: 12:30 | Molto Nuvoloso | 17 | 7 | 51 | 1024 | 10 | S/SO 11.1 | |
| Oggi h: 12:00 | Sereno | 18 | 6 | 45 | 1024 | 10 | SO 11.1 | |
| Oggi h: 11:30 | Sereno | 17 | 6 | 48 | 1024 | 10 | SE 9.3 | |
| Oggi h: 11:00 | Nuvoloso | 17 | 6 | 48 | 1024 | 10 | S 13 | |
| Oggi h: 10:30 | Sereno | 17 | 7 | 51 | 1025 | 10 | SE 11.1 | |
| Oggi h: 10:00 | Sereno | 16 | 7 | 55 | 1025 | 10 | E/SE 14.8 | |
| Oggi h: 09:30 | Sereno | 16 | 8 | 58 | 1025 | 10 | E/SE 16.7 | |
| Oggi h: 09:00 | Sereno | 15 | 7 | 58 | 1025 | 10 | E/SE 16.7 | |
| Oggi h: 08:30 | Poco Nuvoloso | 14 | 8 | 67 | 1025 | 10 | E 18.5 | |
| Oggi h: 08:00 | Poco Nuvoloso | 13 | 9 | 76 | 1025 | 10 | S/SE 7.4 | |
| Oggi h: 07:30 | Poco Nuvoloso | 11 | 8 | 81 | 1024 | 10 | S 7.4 | |
| Oggi h: 07:00 | Sereno | 12 | 8 | 76 | 1024 | 10 | S/SO 9.3 | |
| Oggi h: 06:30 | Sereno | 11 | 9 | 87 | 1024 | 10 | N 5.5 | |
| Oggi h: 06:00 | Poco Nuvoloso | 11 | 9 | 87 | 1023 | 10 | N 1.8 | |
| Oggi h: 05:30 | Coperto | 12 | 10 | 87 | 1023 | 10 | N 5.5 | |
| Oggi h: 05:00 | Molto Nuvoloso | 11 | 9 | 87 | 1023 | 10 | S/SE 7.4 | |
| Oggi h: 04:30 | Coperto | 11 | 10 | 93 | 1023 | 10 | S 7.4 | |
| Oggi h: 04:00 | Coperto | 11 | 10 | 93 | 1022 | 10 | S/SO 7.4 | |
| Oggi h: 03:30 | Coperto | 11 | 9 | 87 | 1022 | 10 | N 5.5 | |
| Oggi h: 03:00 | Molto Nuvoloso | 11 | 9 | 87 | 1022 | 10 | SO 7.4 | |
| Oggi h: 02:30 | Molto Nuvoloso | 12 | 10 | 87 | 1022 | 10 | SE 13 | |
| Oggi h: 02:00 | Nuvoloso | 11 | 9 | 87 | 1022 | 10 | S/SE 13 | |
| Oggi h: 01:30 | Coperto | 12 | 9 | 81 | 1022 | 10 | S 16.7 | |
| Oggi h: 01:00 | Coperto | 12 | 9 | 81 | 1022 | 10 | S 22.2 | |
| Oggi h: 00:45 | Coperto | 12 | 9 | 81 | 1022 | 10 | S 25.9 | |
| Oggi h: 00:30 | Coperto | 12 | 9 | 81 | 1023 | 10 | S 27.8 | |
| Oggi h: 00:21 | Coperto | 12 | 10 | 87 | 1022 | 10 | S 29.6 | |
| Oggi h: 00:00 | Coperto | 14 | 12 | 87 | 1022 | 10 | S 27.8 | |
| Ieri h: 23:30 | Coperto | 14 | 12 | 87 | 1022 | 10 | S/SO 24 | |
| Ieri h: 23:19 | Molto Nuvoloso | 14 | 13 | 93 | 1022 | 10 | S/SO 20.3 | |
| Ieri h: 23:17 | Molto Nuvoloso | 14 | 13 | 93 | 1022 | 10 | S/SO 22.2 | |
| Ieri h: 23:07 | Pioggia | 14 | 13 | 93 | 1022 | 10 | S/SO 22.2 | |
| Ieri h: 23:00 | Pioggia | 14 | 13 | 93 | 1022 | 10 | S/SO 22.2 | |
| Ieri h: 22:57 | Pioggia | 15 | 13 | 87 | 1022 | 6 | S 24 | |
| Ieri h: 22:47 | Pioggia | 15 | 13 | 87 | 1022 | 3 | S/SO 35.2 | |
| Ieri h: 22:30 | Pioggia | 16 | 14 | 87 | 1022 | 3 | O 13 | |
| Ieri h: 22:15 | Pioviggine Foschia | 15 | 14 | 93 | 1021 | 4 | NO 9.3 | |
| Ieri h: 22:00 | Pioviggine Foschia | 16 | 14 | 87 | 1021 | 4 | O 13 | |
| Ieri h: 21:51 | Pioviggine | 16 | 14 | 87 | 1021 | 6 | O/NO 14.8 | |
| Ieri h: 21:30 | Coperto | 16 | 13 | 82 | 1021 | 10 | N 11.1 | |
| Ieri h: 21:00 | Coperto | 16 | 13 | 82 | 1021 | 10 | N 11.1 | |
| Ieri h: 20:30 | Coperto | 17 | 13 | 77 | 1021 | 10 | N 7.4 | |
| Ieri h: 20:00 | Nuvoloso | 17 | 13 | 77 | 1021 | 10 | O/NO 7.4 | |



